Overview Statistics Trail Chart Weather Telemetry Raw packets
 

This is the latest recevied weather packets stored in our database for station/object 9M4GEK-3. If no packets are shown the sender has not sent any weather packets the latest 10 day(s).

<< 2 3 4 5 6 7 8 >>
Time Temp. Humidity Pressure Rain* Wind** Luminosity Snow
1788537621 45.56° C 26% 1008.9 hPa - - - -
1788536870 30.56° C 56% 1011.6 hPa - - - -
1788535970 30.56° C 56% 1011.5 hPa - - - -
1788535070 30.56° C 56% 1011.5 hPa - - - -
1788534170 30.56° C 55% 1011.4 hPa - - - -
1788533269 31.11° C 55% 1011.2 hPa - - - -
1788532764 43.33° C 28% 1009 hPa - - - -
1788532369 31.11° C 54% 1011.1 hPa - - - -
1788531469 31.67° C 54% 1011 hPa - - - -
1788530569 31.67° C 53% 1011 hPa - - - -
1788529669 31.67° C 53% 1010.9 hPa - - - -
1788528769 31.67° C 53% 1010.8 hPa - - - -
1788527868 31.11° C 53% 1010.5 hPa - - - -
1788526964 31.11° C 53% 1010.1 hPa - - - -
1788526064 31.11° C 53% 1009.8 hPa - - - -
1788525164 31.11° C 52% 1009.7 hPa - - - -
1788524264 31.67° C 52% 1009.5 hPa - - - -
1788523364 32.22° C 50% 1009.4 hPa - - - -
1788522465 32.22° C 48% 1009.2 hPa - - - -
1788521564 32.22° C 48% 1009.1 hPa - - - -
1788520664 32.78° C 46% 1009 hPa - - - -
1788519764 33.89° C 44% 1008.8 hPa - - - -
1788518864 35° C 42% 1008.6 hPa - - - -
1788517966 36.11° C 39% 1008.5 hPa - - - -
1788517065 36.67° C 38% 1008.2 hPa - - - -

* Rain since midnight (hover to see other rain measurements)
** Current wind speed in m/s (hover to see current wind gust speed)